JZA175 CYYZ-KJFK

Flight info

Callsign JZA175
Flight time 1h 12m
Altitude 31000
Route KEPTA3 BMPAH DCT AEVON DCT EXTOL Q140 MEMMS PUCKY1
Aircraft E75L/M-SDE3GILORVW/S

Departure

Time 2026-05-07 23:32
Airport Toronto Pearson International Airport (CYYZ)

Arrival

Time 2026-05-08 00:45
Airport John F. Kennedy International Airport (KJFK)
Time Latitude Longitude Altitude Speed Heading
2026-05-07 23:08 43.68442 -79.62419 566 ft 0 kts 20°
2026-05-07 23:21 43.68435 -79.62423 566 ft 2 kts 20°
2026-05-07 23:21 43.68421 -79.62431 566 ft 2 kts 20°
2026-05-07 23:22 43.68407 -79.62438 566 ft 2 kts 37°
2026-05-07 23:22 43.68398 -79.62454 566 ft 2 kts 71°
2026-05-07 23:22 43.68397 -79.62474 566 ft 2 kts 103°
2026-05-07 23:22 43.68403 -79.62492 566 ft 1 kts 135°
2026-05-07 23:23 43.68406 -79.62495 566 ft 0 kts 137°
2026-05-07 23:25 43.68404 -79.62493 566 ft 0 kts 137°
2026-05-07 23:25 43.68397 -79.62484 566 ft 3 kts 137°
2026-05-07 23:25 43.68365 -79.62443 567 ft 9 kts 136°
2026-05-07 23:25 43.68318 -79.62386 568 ft 8 kts 148°
2026-05-07 23:26 43.68266 -79.62410 568 ft 9 kts 230°
2026-05-07 23:26 43.68216 -79.62492 567 ft 12 kts 224°
2026-05-07 23:26 43.68145 -79.62465 568 ft 11 kts 135°
2026-05-07 23:26 43.68088 -79.62389 568 ft 11 kts 138°
2026-05-07 23:27 43.67949 -79.62209 569 ft 15 kts 135°
2026-05-07 23:27 43.67850 -79.62134 569 ft 17 kts 154°
2026-05-07 23:27 43.67749 -79.62015 568 ft 20 kts 136°
2026-05-07 23:28 43.67640 -79.61867 566 ft 23 kts 138°
2026-05-07 23:28 43.67517 -79.61704 564 ft 25 kts 133°
2026-05-07 23:28 43.67382 -79.61538 560 ft 26 kts 136°
2026-05-07 23:28 43.67245 -79.61361 557 ft 27 kts 146°
2026-05-07 23:29 43.67128 -79.61430 555 ft 18 kts 226°
2026-05-07 23:29 43.67033 -79.61555 554 ft 19 kts 220°
2026-05-07 23:29 43.66931 -79.61684 552 ft 20 kts 221°
2026-05-07 23:29 43.66822 -79.61822 550 ft 22 kts 223°
2026-05-07 23:30 43.66703 -79.61972 547 ft 24 kts 223°
2026-05-07 23:30 43.66577 -79.62135 544 ft 25 kts 224°
2026-05-07 23:30 43.66442 -79.62303 539 ft 27 kts 216°
2026-05-07 23:30 43.66333 -79.62434 534 ft 12 kts 210°
2026-05-07 23:31 43.66260 -79.62406 532 ft 8 kts 137°
2026-05-07 23:31 43.66214 -79.62347 532 ft 9 kts 136°
2026-05-07 23:31 43.66171 -79.62282 532 ft 8 kts 111°
2026-05-07 23:31 43.66193 -79.62215 533 ft 7 kts 46°
2026-05-07 23:32 43.66374 -79.61958 541 ft 81 kts 46°
2026-05-07 23:32 43.66935 -79.61108 582 ft 152 kts 47°
2026-05-07 23:32 43.67654 -79.59969 1262 ft 168 kts 47°
2026-05-07 23:32 43.68425 -79.58701 2094 ft 180 kts 53°
2026-05-07 23:33 43.69237 -79.57352 2943 ft 192 kts 53°
2026-05-07 23:33 43.70145 -79.55936 3783 ft 205 kts 51°
2026-05-07 23:33 43.71204 -79.54523 4460 ft 224 kts 52°
2026-05-07 23:33 43.71891 -79.52570 5157 ft 237 kts 82°
2026-05-07 23:34 43.71964 -79.50140 5279 ft 279 kts 106°
2026-05-07 23:34 43.71146 -79.47559 5626 ft 299 kts 122°
2026-05-07 23:34 43.70036 -79.45277 5654 ft 276 kts 133°
2026-05-07 23:34 43.68848 -79.43344 5633 ft 258 kts 132°
2026-05-07 23:35 43.67833 -79.41296 5570 ft 256 kts 119°
2026-05-07 23:35 43.67198 -79.39028 6496 ft 259 kts 110°
2026-05-07 23:35 43.66865 -79.36745 8079 ft 237 kts 102°
2026-05-07 23:35 43.66798 -79.34563 9248 ft 229 kts 97°
2026-05-07 23:36 43.66610 -79.32494 10116 ft 216 kts 118°
2026-05-07 23:36 43.65919 -79.30733 10872 ft 205 kts 141°
2026-05-07 23:36 43.64951 -79.29352 11615 ft 203 kts 145°
2026-05-07 23:36 43.63864 -79.28171 12293 ft 200 kts 156°
2026-05-07 23:37 43.62633 -79.27393 12882 ft 199 kts 166°
2026-05-07 23:37 43.61377 -79.26588 13591 ft 201 kts 165°
2026-05-07 23:37 43.60189 -79.25627 14427 ft 200 kts 154°
2026-05-07 23:37 43.59089 -79.24342 14741 ft 227 kts 146°
2026-05-07 23:38 43.57942 -79.22594 14825 ft 261 kts 139°
2026-05-07 23:38 43.56730 -79.20596 15056 ft 282 kts 143°
2026-05-07 23:38 43.55047 -79.19270 15096 ft 288 kts 173°
2026-05-07 23:38 43.53052 -79.18465 15212 ft 319 kts 160°
2026-05-07 23:39 43.51258 -79.16351 15240 ft 361 kts 133°
2026-05-07 23:39 43.50185 -79.13055 15312 ft 399 kts 109°
2026-05-07 23:39 43.49749 -79.09207 15816 ft 403 kts 109°
2026-05-07 23:39 43.48612 -79.05778 16249 ft 390 kts 135°
2026-05-07 23:40 43.46957 -79.02902 17033 ft 390 kts 134°
2026-05-07 23:40 43.45355 -78.99775 17538 ft 394 kts 133°
2026-05-07 23:40 43.43793 -78.96761 18565 ft 385 kts 134°
2026-05-07 23:40 43.42242 -78.93800 19216 ft 385 kts 134°
2026-05-07 23:41 43.40685 -78.90829 19887 ft 385 kts 134°
2026-05-07 23:41 43.39122 -78.87852 20582 ft 383 kts 135°
2026-05-07 23:41 43.37558 -78.84875 21241 ft 383 kts 135°
2026-05-07 23:41 43.35963 -78.81852 21388 ft 396 kts 134°
2026-05-07 23:42 43.34404 -78.78874 22514 ft 379 kts 135°
2026-05-07 23:42 43.32892 -78.75991 23508 ft 370 kts 134°
2026-05-07 23:42 43.31670 -78.72784 23894 ft 387 kts 123°
2026-05-07 23:42 43.30597 -78.69388 24356 ft 390 kts 123°
2026-05-07 23:43 43.29516 -78.65959 24885 ft 390 kts 123°
2026-05-07 23:43 43.28440 -78.62546 25314 ft 393 kts 123°
2026-05-07 23:43 43.27357 -78.59114 25705 ft 396 kts 123°
2026-05-07 23:43 43.26249 -78.55602 26153 ft 397 kts 123°
2026-05-07 23:44 43.25163 -78.52167 26582 ft 399 kts 124°
2026-05-07 23:44 43.24049 -78.48652 26947 ft 402 kts 124°
2026-05-07 23:44 43.22932 -78.45125 27364 ft 402 kts 124°
2026-05-07 23:44 43.21816 -78.41609 27729 ft 405 kts 124°
2026-05-07 23:45 43.20681 -78.38037 28085 ft 406 kts 124°
2026-05-07 23:45 43.19516 -78.34536 28445 ft 403 kts 129°
2026-05-07 23:45 43.18071 -78.31319 28798 ft 393 kts 136°
2026-05-07 23:45 43.16435 -78.28367 29134 ft 391 kts 139°
2026-05-07 23:46 43.14727 -78.25439 29438 ft 392 kts 140°
2026-05-07 23:46 43.13011 -78.22545 29717 ft 394 kts 140°
2026-05-07 23:46 43.11264 -78.19611 30059 ft 394 kts 140°
2026-05-07 23:46 43.09535 -78.16718 30379 ft 395 kts 140°
2026-05-07 23:47 43.07798 -78.13814 30624 ft 397 kts 140°
2026-05-07 23:47 43.06049 -78.10894 30837 ft 399 kts 140°
2026-05-07 23:47 43.04262 -78.07913 31017 ft 403 kts 140°
2026-05-07 23:47 43.02465 -78.04920 30973 ft 411 kts 140°
2026-05-07 23:48 42.98797 -77.98812 30999 ft 423 kts 139°
2026-05-07 23:48 42.95025 -77.92545 30987 ft 430 kts 139°
2026-05-07 23:49 42.91430 -77.85929 30978 ft 438 kts 132°
2026-05-07 23:49 42.90056 -77.82205 30979 ft 450 kts 123°
2026-05-07 23:49 42.89099 -77.78067 31002 ft 463 kts 114°
2026-05-07 23:50 42.87893 -77.69454 31013 ft 461 kts 115°
2026-05-07 23:50 42.86233 -77.61015 31003 ft 461 kts 116°
2026-05-07 23:51 42.84529 -77.52560 30999 ft 461 kts 116°
2026-05-07 23:51 42.82826 -77.44156 30919 ft 460 kts 116°
2026-05-07 23:52 42.81117 -77.35762 30917 ft 460 kts 116°
2026-05-07 23:52 42.79398 -77.27351 30913 ft 459 kts 116°
2026-05-07 23:53 42.77687 -77.19015 30911 ft 459 kts 116°
2026-05-07 23:53 42.75962 -77.10642 30911 ft 460 kts 116°
2026-05-07 23:54 42.74234 -77.02286 30912 ft 459 kts 116°
2026-05-07 23:54 42.72510 -76.93990 30913 ft 458 kts 116°
2026-05-07 23:55 42.70775 -76.85667 30913 ft 458 kts 116°
2026-05-07 23:55 42.69024 -76.77308 30913 ft 457 kts 116°
2026-05-07 23:56 42.67277 -76.68997 30909 ft 459 kts 116°
2026-05-07 23:56 42.65351 -76.60793 30896 ft 446 kts 124°
2026-05-07 23:57 42.62578 -76.53352 30894 ft 444 kts 126°
2026-05-07 23:57 42.59574 -76.46177 30908 ft 426 kts 138°
2026-05-07 23:58 42.56087 -76.39548 30908 ft 433 kts 133°
2026-05-07 23:58 42.52780 -76.32747 30900 ft 433 kts 134°
2026-05-07 23:59 42.49546 -76.25760 30894 ft 436 kts 132°
2026-05-07 23:59 42.46376 -76.18759 30883 ft 438 kts 132°
2026-05-08 00:00 42.43201 -76.11762 30875 ft 438 kts 132°
2026-05-08 00:00 42.40005 -76.04732 30868 ft 438 kts 132°
2026-05-08 00:01 42.36814 -75.97733 30869 ft 437 kts 132°
2026-05-08 00:01 42.33620 -75.90743 30869 ft 437 kts 132°
2026-05-08 00:02 42.30411 -75.83736 30869 ft 437 kts 132°
2026-05-08 00:02 42.27212 -75.76766 30873 ft 437 kts 132°
2026-05-08 00:03 42.24004 -75.69791 30877 ft 437 kts 132°
2026-05-08 00:03 42.20808 -75.62859 30880 ft 438 kts 132°
2026-05-08 00:04 42.17590 -75.55893 30880 ft 438 kts 132°
2026-05-08 00:04 42.14386 -75.48974 30879 ft 437 kts 132°
2026-05-08 00:05 42.11167 -75.42040 30880 ft 437 kts 132°
2026-05-08 00:05 42.07990 -75.35072 30872 ft 442 kts 128°
2026-05-08 00:06 42.05450 -75.27480 30860 ft 458 kts 116°
2026-05-08 00:06 42.04809 -75.23224 30863 ft 472 kts 107°
2026-05-08 00:06 42.04647 -75.18754 30860 ft 483 kts 99°
2026-05-08 00:07 42.04082 -75.09907 30871 ft 471 kts 108°
2026-05-08 00:07 42.03181 -75.01196 30490 ft 468 kts 108°
2026-05-08 00:08 42.02733 -74.96936 29867 ft 462 kts 107°
2026-05-08 00:08 42.02287 -74.92709 29309 ft 453 kts 107°
2026-05-08 00:08 42.01846 -74.88550 28738 ft 445 kts 107°
2026-05-08 00:08 42.01415 -74.84508 28159 ft 439 kts 107°
2026-05-08 00:09 42.00986 -74.80498 27582 ft 432 kts 107°
2026-05-08 00:09 42.00558 -74.76505 26990 ft 428 kts 107°
2026-05-08 00:09 42.00135 -74.72577 26478 ft 422 kts 107°
2026-05-08 00:09 41.99715 -74.68682 26120 ft 417 kts 107°
2026-05-08 00:10 41.99298 -74.64844 25795 ft 417 kts 107°
2026-05-08 00:10 41.98885 -74.61038 25477 ft 417 kts 107°
2026-05-08 00:10 41.98459 -74.57130 25150 ft 417 kts 106°
2026-05-08 00:10 41.98039 -74.53284 24824 ft 417 kts 106°
2026-05-08 00:11 41.97588 -74.49466 24491 ft 411 kts 111°
2026-05-08 00:11 41.96509 -74.46016 24136 ft 389 kts 129°
2026-05-08 00:11 41.95009 -74.43028 23883 ft 383 kts 134°
2026-05-08 00:11 41.93445 -74.40184 23551 ft 381 kts 135°
2026-05-08 00:12 41.91845 -74.37344 23223 ft 380 kts 135°
2026-05-08 00:12 41.90259 -74.34552 22895 ft 378 kts 135°
2026-05-08 00:12 41.88653 -74.31735 22572 ft 376 kts 135°
2026-05-08 00:12 41.87067 -74.28958 22256 ft 374 kts 135°
2026-05-08 00:13 41.85494 -74.26205 21941 ft 373 kts 135°
2026-05-08 00:13 41.83903 -74.23424 21622 ft 372 kts 135°
2026-05-08 00:13 41.82345 -74.20703 21308 ft 370 kts 135°
2026-05-08 00:13 41.80769 -74.17954 20991 ft 369 kts 135°
2026-05-08 00:14 41.79224 -74.15261 20677 ft 367 kts 135°
2026-05-08 00:14 41.77673 -74.12559 20361 ft 366 kts 135°
2026-05-08 00:14 41.76124 -74.09863 20043 ft 365 kts 135°
2026-05-08 00:14 41.74363 -74.07546 19798 ft 345 kts 156°
2026-05-08 00:15 41.72144 -74.06628 19808 ft 331 kts 180°
2026-05-08 00:15 41.69881 -74.06838 19667 ft 329 kts 188°
2026-05-08 00:15 41.67598 -74.07034 19385 ft 323 kts 186°
2026-05-08 00:15 41.65405 -74.07191 19068 ft 312 kts 186°
2026-05-08 00:16 41.63274 -74.07336 18819 ft 300 kts 186°
2026-05-08 00:16 41.61273 -74.07470 18836 ft 284 kts 187°
2026-05-08 00:16 41.59292 -74.07604 18829 ft 282 kts 187°
2026-05-08 00:16 41.57338 -74.07735 18860 ft 285 kts 187°
2026-05-08 00:17 41.55353 -74.07872 18852 ft 288 kts 187°
2026-05-08 00:17 41.53336 -74.08011 18862 ft 290 kts 187°
2026-05-08 00:17 41.51307 -74.08144 18852 ft 291 kts 186°
2026-05-08 00:17 41.49306 -74.08276 18850 ft 290 kts 186°
2026-05-08 00:18 41.47296 -74.08408 18849 ft 290 kts 186°
2026-05-08 00:18 41.45276 -74.08540 18849 ft 290 kts 186°
2026-05-08 00:18 41.43253 -74.08673 18848 ft 290 kts 186°
2026-05-08 00:18 41.41238 -74.08806 18849 ft 290 kts 186°
2026-05-08 00:19 41.39246 -74.08936 18849 ft 290 kts 186°
2026-05-08 00:19 41.37228 -74.09068 18849 ft 290 kts 186°
2026-05-08 00:19 41.35207 -74.09201 18849 ft 290 kts 186°
2026-05-08 00:19 41.33198 -74.09332 18850 ft 290 kts 186°
2026-05-08 00:20 41.31187 -74.09463 18850 ft 290 kts 186°
2026-05-08 00:20 41.29167 -74.09596 18850 ft 290 kts 186°
2026-05-08 00:20 41.27168 -74.09727 18850 ft 290 kts 186°
2026-05-08 00:20 41.25167 -74.09857 18850 ft 290 kts 186°
2026-05-08 00:21 41.23135 -74.09990 18851 ft 290 kts 186°
2026-05-08 00:21 41.21131 -74.10120 18851 ft 290 kts 186°
2026-05-08 00:21 41.19133 -74.10251 18851 ft 290 kts 186°
2026-05-08 00:21 41.17121 -74.10382 18852 ft 290 kts 186°
2026-05-08 00:22 41.15105 -74.10513 18852 ft 290 kts 186°
2026-05-08 00:22 41.13078 -74.10644 18853 ft 290 kts 186°
2026-05-08 00:22 41.11060 -74.10776 18853 ft 290 kts 186°
2026-05-08 00:22 41.09057 -74.10906 18853 ft 291 kts 186°
2026-05-08 00:23 41.07033 -74.11037 18853 ft 291 kts 186°
2026-05-08 00:23 41.05013 -74.11169 18853 ft 291 kts 186°
2026-05-08 00:23 41.02987 -74.11300 18853 ft 291 kts 186°
2026-05-08 00:23 41.00957 -74.11432 18853 ft 291 kts 186°
2026-05-08 00:24 40.98947 -74.11459 18826 ft 295 kts 177°
2026-05-08 00:24 40.96954 -74.10728 18886 ft 299 kts 167°
2026-05-08 00:24 40.94960 -74.09857 18835 ft 301 kts 168°
2026-05-08 00:24 40.92992 -74.09000 18784 ft 301 kts 168°
2026-05-08 00:25 40.90976 -74.08124 18469 ft 303 kts 167°
2026-05-08 00:25 40.89057 -74.07295 18202 ft 301 kts 168°
2026-05-08 00:25 40.87022 -74.06416 17807 ft 300 kts 167°
2026-05-08 00:25 40.85041 -74.05563 17427 ft 298 kts 167°
2026-05-08 00:26 40.83099 -74.04729 17046 ft 295 kts 167°
2026-05-08 00:26 40.81150 -74.03893 16653 ft 293 kts 167°
2026-05-08 00:26 40.79208 -74.03062 16221 ft 292 kts 167°
2026-05-08 00:26 40.77293 -74.02248 15790 ft 291 kts 167°
2026-05-08 00:27 40.75375 -74.01437 15358 ft 289 kts 167°
2026-05-08 00:27 40.73457 -74.00629 14925 ft 288 kts 167°
2026-05-08 00:27 40.71551 -73.99829 14473 ft 287 kts 167°
2026-05-08 00:27 40.69664 -73.99043 13966 ft 287 kts 167°
2026-05-08 00:28 40.67757 -73.98254 13460 ft 286 kts 167°
2026-05-08 00:28 40.65864 -73.97476 12955 ft 285 kts 167°
2026-05-08 00:28 40.63974 -73.96706 12449 ft 284 kts 167°
2026-05-08 00:28 40.62094 -73.95943 11946 ft 283 kts 167°
2026-05-08 00:29 40.60222 -73.95198 11449 ft 282 kts 167°
2026-05-08 00:29 40.58331 -73.94478 10946 ft 281 kts 167°
2026-05-08 00:29 40.56458 -73.93797 10446 ft 279 kts 167°
2026-05-08 00:29 40.54594 -73.93121 9908 ft 284 kts 168°
2026-05-08 00:30 40.52718 -73.92325 9417 ft 287 kts 167°
2026-05-08 00:30 40.50819 -73.91522 8917 ft 289 kts 167°
2026-05-08 00:30 40.48894 -73.90707 8412 ft 289 kts 168°
2026-05-08 00:30 40.47038 -73.89754 7967 ft 292 kts 153°
2026-05-08 00:31 40.45676 -73.87829 7915 ft 293 kts 122°
2026-05-08 00:31 40.44817 -73.85362 7645 ft 297 kts 117°
2026-05-08 00:31 40.43979 -73.82888 7382 ft 296 kts 118°
2026-05-08 00:31 40.43144 -73.80426 7105 ft 296 kts 117°
2026-05-08 00:32 40.42291 -73.77960 6816 ft 295 kts 117°
2026-05-08 00:32 40.41441 -73.75542 6534 ft 295 kts 117°
2026-05-08 00:32 40.40577 -73.73092 6251 ft 295 kts 117°
2026-05-08 00:32 40.39832 -73.70583 5929 ft 295 kts 101°
2026-05-08 00:33 40.39960 -73.67955 5598 ft 290 kts 67°
2026-05-08 00:33 40.41024 -73.65763 5351 ft 281 kts 47°
2026-05-08 00:33 40.42254 -73.63795 5066 ft 277 kts 47°
2026-05-08 00:33 40.43465 -73.61856 4766 ft 271 kts 47°
2026-05-08 00:34 40.44643 -73.59986 4470 ft 267 kts 47°
2026-05-08 00:34 40.45810 -73.58112 4170 ft 263 kts 47°
2026-05-08 00:34 40.46963 -73.56266 3972 ft 259 kts 47°
2026-05-08 00:34 40.48109 -73.54436 3999 ft 259 kts 47°
2026-05-08 00:35 40.49269 -73.52605 3983 ft 262 kts 47°
2026-05-08 00:35 40.50453 -73.50759 3985 ft 264 kts 45°
2026-05-08 00:35 40.51917 -73.49412 3798 ft 260 kts 15°
2026-05-08 00:35 40.53693 -73.49165 3520 ft 253 kts 357°
2026-05-08 00:36 40.55431 -73.49153 3222 ft 252 kts 357°
2026-05-08 00:36 40.57178 -73.49142 2978 ft 246 kts 357°
2026-05-08 00:36 40.58873 -73.49136 2987 ft 243 kts 357°
2026-05-08 00:36 40.60558 -73.49133 2985 ft 244 kts 357°
2026-05-08 00:37 40.62270 -73.49128 2992 ft 246 kts 357°
2026-05-08 00:37 40.63991 -73.49123 2986 ft 247 kts 357°
2026-05-08 00:37 40.65715 -73.49120 2983 ft 247 kts 357°
2026-05-08 00:38 40.69133 -73.49120 2981 ft 247 kts 357°
2026-05-08 00:38 40.70828 -73.49118 2957 ft 235 kts 357°
2026-05-08 00:38 40.72393 -73.49223 2927 ft 216 kts 341°
2026-05-08 00:38 40.73492 -73.50277 2995 ft 187 kts 302°
2026-05-08 00:39 40.74091 -73.51761 2999 ft 180 kts 297°
2026-05-08 00:39 40.74651 -73.53209 2925 ft 179 kts 297°
2026-05-08 00:39 40.75216 -73.54685 2685 ft 181 kts 297°
2026-05-08 00:39 40.75777 -73.56180 2454 ft 181 kts 297°
2026-05-08 00:40 40.76326 -73.57667 2221 ft 180 kts 297°
2026-05-08 00:40 40.76862 -73.59137 1994 ft 176 kts 297°
2026-05-08 00:40 40.77376 -73.60572 1972 ft 171 kts 297°
2026-05-08 00:40 40.77873 -73.62000 1972 ft 173 kts 293°
2026-05-08 00:41 40.77861 -73.63584 1941 ft 181 kts 250°
2026-05-08 00:41 40.76953 -73.64761 1971 ft 193 kts 206°
2026-05-08 00:41 40.75616 -73.65036 2006 ft 195 kts 193°
2026-05-08 00:41 40.74507 -73.65901 1986 ft 180 kts 235°
2026-05-08 00:42 40.73779 -73.67142 2078 ft 174 kts 237°
2026-05-08 00:42 40.73019 -73.68366 1902 ft 169 kts 231°
2026-05-08 00:42 40.72077 -73.69299 1899 ft 169 kts 219°
2026-05-08 00:42 40.71098 -73.70185 1793 ft 171 kts 221°
2026-05-08 00:43 40.70090 -73.71005 1593 ft 170 kts 215°
2026-05-08 00:43 40.69113 -73.71787 1219 ft 161 kts 218°
2026-05-08 00:43 40.68204 -73.72537 916 ft 150 kts 216°
2026-05-08 00:43 40.67328 -73.73242 620 ft 146 kts 214°
2026-05-08 00:44 40.66446 -73.73977 413 ft 157 kts 216°
2026-05-08 00:44 40.65511 -73.74706 286 ft 155 kts 214°
2026-05-08 00:44 40.64576 -73.75436 104 ft 152 kts 213°
2026-05-08 00:44 40.63723 -73.76112 16 ft 125 kts 215°
2026-05-08 00:45 40.63128 -73.76580 14 ft 74 kts 212°
2026-05-08 00:45 40.62832 -73.76808 13 ft 40 kts 212°
2026-05-08 00:45 40.62671 -73.76933 12 ft 21 kts 209°
2026-05-08 00:45 40.62590 -73.77057 12 ft 15 kts 248°
2026-05-08 00:46 40.62585 -73.77173 12 ft 10 kts 285°
2026-05-08 00:46 40.62614 -73.77225 12 ft 4 kts 332°
2026-05-08 00:46 40.62628 -73.77232 12 ft 2 kts 343°
2026-05-08 00:46 40.62664 -73.77246 12 ft 8 kts 345°
2026-05-08 00:47 40.62735 -73.77249 12 ft 11 kts 20°
2026-05-08 00:47 40.62812 -73.77192 13 ft 14 kts 29°
2026-05-08 00:47 40.62904 -73.77123 13 ft 15 kts 30°
2026-05-08 00:47 40.62996 -73.77125 13 ft 14 kts 310°
2026-05-08 00:48 40.63050 -73.77241 13 ft 14 kts 303°
2026-05-08 00:48 40.63105 -73.77357 13 ft 15 kts 302°
2026-05-08 00:48 40.63160 -73.77476 13 ft 15 kts 301°
2026-05-08 00:48 40.63201 -73.77566 13 ft 7 kts 300°
2026-05-08 00:49 40.63216 -73.77599 13 ft 3 kts 300°
2026-05-08 00:49 40.63227 -73.77625 13 ft 3 kts 300°
2026-05-08 00:49 40.63248 -73.77670 13 ft 8 kts 301°
2026-05-08 00:49 40.63286 -73.77754 13 ft 13 kts 301°
2026-05-08 00:50 40.63343 -73.77880 13 ft 17 kts 301°
2026-05-08 00:50 40.63442 -73.77879 13 ft 16 kts 33°
2026-05-08 00:50 40.63523 -73.77813 13 ft 10 kts 30°
2026-05-08 00:50 40.63575 -73.77847 13 ft 9 kts 296°
2026-05-08 00:51 40.63574 -73.77929 13 ft 9 kts 262°
2026-05-08 00:51 40.63565 -73.77975 13 ft 2 kts 249°
2026-05-08 00:51 40.63560 -73.77998 13 ft 3 kts 262°
2026-05-08 00:51 40.63559 -73.78014 13 ft 0 kts 263°